CZ-3B R/B, 45808

Orbit data source: Space-Track

CZ-3B R/B, 45808 is space debris in HEO originally from a launch on Tue, 23 Jun 2020 UTC launched from the Xichang Space Center, China (XSC). Debris objects in space refer to the collection of defunct objects orbiting the Earth. Examples of debris include non-operational satellites, rocket bodies, and fragments generated from explosions, collisions, or faulty payload assembly.

Loading next visibility...
Identifier
45808, 2020-040B
Orbit
HEO
Country
Flag of CNCN / PRC
Related business
Manufacturer
CALT
Mission
Spacecraft
Bus & Motor
CZ-3A STAGE 3, Unknown motor
Mass
~2,800 kg wet, ~2,800 kg dry
Launch date (UTC)
2020-06-23 (6 years ago)
Launch vehicle
Unknown
Launch site
Xichang Space Center, China (XSC)
Object type
Payload
Rocket body
Debris
Shape & HBR
Cyl + 1 Nozzle, 6.2 m
Radar Cross Section
32.704 m², Large (>1 m²)

Expand to show TLE details & history
Last TLE update: 3 days ago

TLE from 3 days ago
0 CZ-3B R/B
1 45808U 20040B   26170.42331534  .00027896  00000-0  15799-2 0  9997
2 45808  28.3527 330.8418 6483454  80.5741 342.5679  3.38675256 61266
Epoch: 2026-06-19T10:09Z
TLE epoch observation values (Epoch: 2026-06-19T10:09:34.445Z)
Latitude
0.00005°
Longitude
-89.22836°
Altitude
3,431.669 km
Speed
7.745 km/s
True Right ascension
22h 03m 16s
True Declination
0° 00' 00"
Sunlit
Object was in daylight at epoch
Visualization orbit readout
Latitude
Unknown
Longitude
Unknown
Altitude
Unknown
Speed
Unknown
Apparent Right ascension
Unknown
Apparent Declination
Unknown
Sunlit
N/A
Visualization observer readout
Local Sidereal Time
21:37:28
Azimuth
Unknown
Elevation
Unknown
Doppler factor
Unknown
Orbital elements
Apogee altitude
24,501.802 km
Perigee altitude
209.725 km
Semi-major axis
18,733.901 km
Eccentricity
0.64835
Inclination
28.3527°
RAAN
330.8418°
Arg. of periapsis
80.5741°
True anomaly
279.72967°
Mean anomaly
342.5679°
Eccentric anomaly
317.44531°
Mean motion
0.84645 °/min
Orbital period
425.31 mins
BSTAR
0.0015799
Loading maneuver chart data...
Computing Atmospheric mass density...
Loading historical data...
Loading historical data...
Loading historical data...
Loading historical data...
Loading historical data...
Loading historical data...
Loading historical data...
Other satellites on launch #40 in the year 2020 (2020-06-23 UTC)

Documentation

Showing up to 5 results
|